Location: Peebles
(55.6412°N, 3.1714°W)
Time: 22:49:52
(UTC+01:00)

USA 281 - Pass Details

Date: 03 February 2022
Orbit: 1070 x 1089 km, 106.0° (Epoch: 25 March)

Event Time Altitude Azimuth Distance (km) Brightness Sun altitude
Rises 05:25:15 0° 36° (NE) 3,904 6.7 -22.2°
Reaches altitude 10° 05:28:16 10° 24° (NNE) 2,947 5.8 -21.8°
Maximum altitude 05:33:18 24° 334° (NNW) 2,093 4.5 -21.0°
Enters shadow 05:34:46 22° 315° (NW) 2,179 4.4 -20.8°
